SEEDS II (CO-66)

Last updated on Fri Dec 19 2025 00:03:11 GMT+0000 (Coordinated Universal Time)

1 32791U 08021J 25352.41396204 .00015347 00000+0 60926-3 0 9994 2 32791 97.7441 337.7552 0002004 178.5065 181.6178 15.25441691959661
UTC large
Height (km)
Speed (km/s)
/
Latitude / Longitude
Inclination (degrees)
Orbital Period (minutes)
Azimuth
Elevation
Range (km)
Doppler Factor

Next 0 passes for location: London (51.5072 / 0.1276)

Sorry there are no passes over London.